User: anonymous   Login
Location: Wharf Road Observatory
(44.7802°N, 65.6070°W)
Time: 17:35:37
(UTC-04:00)
Language:

Tiangong - Orbit

View from above orbital plane
View from above orbital plane
View from above satellite
View from above satellite

Ground track
Ground track

The orbit data is extracted from the following two-line orbital elements,

1 48274U 21035A   22021.51051105  .00015385  00000-0  18166-3 0  9998
2 48274  41.4706  32.6230 0002556 127.7936   8.0455 15.60987924 41837
Epoch (UTC): 21 January 2022 12:15:08
Eccentricity: 0.0002556
inclination: 41.4706°
perigee height: 383 km
apogee height: 386 km
right ascension of ascending node: 32.6230°
argument of perigee: 127.7936°
revolutions per day: 15.60987924
mean anomaly at epoch: 8.0455°
orbit number at epoch: 4183

The dashed part of the orbit path shows where the satellite is in the earth's shadow,  

DLR